Weather in Mielec

Poland     50°17′45″N   21°25′20″E
temp.,
°C
wind,
m/s
gust,
m/s
humid.,
%
clouds,
%
prec.,
mm/h
press.,
hPa
HPBL,
m
3 march, wed
wed301:00+2w22902 0.0 103422
04:00+1wsw12930 0.0 103222
07:00+1sw12930 0.0 103222
10:00+6wsw23720 0.0 1030330
13:00+10wsw23550 0.0 1028537
16:00+10sw12590 0.0 102644
19:00+7s33702 0.0 102550
22:00+5ssw36878 0.0 1023138
4 march, thu
thu401:00+4sw37864 0.0 1022151
04:00+3sw4118253 0.0 1019267
07:00+4sw4117769 0.0 1018277
10:00+9w6116285 0.0 1016753
13:00+12w7115763 0.0 10141354
16:00+11w595941 0.0 10121364
19:00+8w597867 0.4 1012602
22:00+6nne3589100 3.5 1012342
5 march, fri
fri501:00+3nne3595100 5.1 1012296
04:00+1n3596100 1.6 1012316
07:000n5896100 4.4 1015505
10:00+1n5783100 0.6 1017770
13:00+3n465996 0.6 10181359
16:00+2n465213 0.0 10191663
19:000nnw256942 0.0 1023153
22:00−1nw25710 0.0 1024153
6 march, sat
sat601:00−1nw25710 0.0 1026192
04:00−1nw247226 0.0 1027199
07:00−1n356558 0.1 1029666
10:00+1n455087 0.0 10311285
13:00+2nnw354172 0.1 10311890
16:00+1wnw3546100 0.1 10311649
19:00−1w235961 0.1 103157
22:00−2wsw36610 0.0 1031164
7 march, sun
sun701:00−2wsw49610 0.0 1030337
04:00−1wsw511600 0.0 1028489
07:00−1wsw512540 0.0 1027707
10:00+3w710400 0.0 10251093
13:00+5w710373 0.0 10231291
16:00+4w5104631 0.0 10201067
19:00+1wsw4125715 0.0 1020292
22:000wsw410626 0.0 1020266